Content
SEND FEEDBACK

Daily
Averages
Monthly
Summary
United States of America

CRIVITZ, WISCONSIN


Home > North America > United States > Wisconsin
Elevation: 900 feet     Latitude: 45 19N     Longitude: 088 11W

WEATHER
 
SELECT A DAY
Number of Records: 455,741;   Date Range: 1/1/95 - 9/16/14
 
SHARE

PRINT THIS DATA

[ ← Previous Day ]
WEATHER ALMANAC - FEBRUARY 13, 2013
[ Next Day → ]
[ °C ]   °F
Weather ElementAverageHighLow
Temperature27.7 °F33.8 °F (12:55 pm)19.4 °F (1:15 am)
Dewpoint22.6 °F30.2 °F (10:55 pm)15.8 °F (1:55 am)
Humidity81.8 %100 % (4:15 am)60 % (1:15 pm)
Barometer29.68 in29.77 in (12:35 am)29.64 in (1:55 pm)
Wind Speed6.2 mph10.4 mph (3:35 am)
Weather ElementAverage
Visibility7.9 mi
Wind DirectionWSW (238.3 °)

Weather ElementTotal
Precipitation---
Heating Degree Days38.4 (Base 65)
Averaged from 70 records on February 13, 2013
WEATHER CONDITIONS BREAKOUT
WIND DIRECTION BREAKOUT
WEATHER BY HOUR - FEBRUARY 13, 2013
[ °C ]   °F
Local TimeTemperatureDewpointHumidityBarometerVisibilityWind DirectionWind SpeedGust SpeedPrecipitationEventsConditions
12:35 AM21.2 °F19.4 °F93 %29.77 in10.0 miWSW (240°)4.6 mphPartly Cloudy
12:55 AM21.2 °F17.6 °F86 %29.76 in10.0 miWSW (240°)4.6 mphClear
1:15 AM19.4 °F17.6 °F93 %29.76 in10.0 miSW (230°)4.6 mphClear
1:35 AM21.2 °F17.6 °F86 %29.76 in10.0 miWSW (240°)6.9 mphClear
1:55 AM19.4 °F15.8 °F86 %29.75 in10.0 miSW (230°)6.9 mphClear
2:15 AM21.2 °F17.6 °F86 %29.75 in10.0 miSW (230°)6.9 mphClear
2:35 AM21.2 °F19.4 °F93 %29.74 in10.0 miSW (230°)6.9 mphMostly Cloudy
2:55 AM21.2 °F19.4 °F93 %29.73 in10.0 miWSW (240°)8.1 mphOvercast
3:15 AM21.2 °F17.6 °F86 %29.73 in10.0 miSW (230°)9.2 mphOvercast
3:35 AM21.2 °F17.6 °F86 %29.72 in10.0 miSW (230°)10.4 mphOvercast
3:55 AM21.2 °F15.8 °F80 %29.72 in10.0 miSW (230°)10.4 mphOvercast
4:15 AM21.2 °F21.2 °F100 %29.72 in9.0 miWSW (240°)8.1 mphOvercast
4:35 AM21.2 °F21.2 °F100 %29.71 in8.0 miSW (230°)9.2 mphOvercast
4:55 AM21.2 °F17.6 °F86 %29.71 in8.0 miWSW (240°)6.9 mphOvercast
5:15 AM21.2 °F19.4 °F93 %29.71 in8.0 miWSW (250°)5.8 mphOvercast
5:35 AM21.2 °F21.2 °F100 %29.71 in7.0 miWSW (250°)3.5 mphOvercast
5:55 AM21.2 °F19.4 °F93 %29.71 in7.0 miWSW (240°)5.8 mphOvercast
6:15 AM21.2 °F17.6 °F86 %29.71 in7.0 miWSW (250°)4.6 mphOvercast
6:35 AM21.2 °F19.4 °F93 %29.71 in7.0 miWSW (250°)3.5 mphOvercast
6:55 AM21.2 °F19.4 °F93 %29.70 in5.0 miWSW (240°)4.6 mphOvercast
7:15 AM21.2 °F19.4 °F93 %29.70 in5.0 miSW (230°)6.9 mphOvercast
7:35 AM21.2 °F21.2 °F100 %29.70 in5.0 miWSW (250°)4.6 mphOvercast
7:55 AM21.2 °F21.2 °F100 %29.70 in5.0 miWSW (240°)5.8 mphOvercast
8:15 AM23.0 °F21.2 °F93 %29.70 in5.0 miSW (230°)5.8 mphOvercast
8:35 AM23.0 °F19.4 °F86 %29.69 in5.0 miWSW (240°)6.9 mphOvercast
8:55 AM24.8 °F21.2 °F86 %29.69 in5.0 miWSW (240°)5.8 mphOvercast
9:15 AM24.8 °F19.4 °F80 %29.69 in5.0 miWest (260°)5.8 mphOvercast
9:35 AM24.8 °F21.2 °F86 %29.69 in5.0 miWSW (250°)4.6 mphOvercast
9:55 AM26.6 °F21.2 °F80 %29.69 in5.0 miSW (230°)4.6 mphOvercast
10:15 AM26.6 °F21.2 °F80 %29.69 in6.0 miWSW (240°)4.6 mphOvercast
10:35 AM26.6 °F21.2 °F80 %29.69 in7.0 miSW (220°)5.8 mphOvercast
10:55 AM28.4 °F23.0 °F80 %29.69 in7.0 miSW (230°)6.9 mphOvercast
11:15 AM28.4 °F21.2 °F74 %29.68 in7.0 miSW (220°)8.1 mphOvercast
11:35 AM30.2 °F21.2 °F69 %29.68 in8.0 miSW (220°)5.8 mphOvercast
11:55 AM30.2 °F21.2 °F69 %29.67 in8.0 miSW (220°)6.9 mphOvercast
12:15 PM30.2 °F23.0 °F75 %29.66 in8.0 miSW (220°)5.8 mphOvercast
12:35 PM32.0 °F21.2 °F64 %29.65 in9.0 miSW (230°)3.5 mphOvercast
12:55 PM33.8 °F23.0 °F65 %29.65 in9.0 miSW (230°)6.9 mphOvercast
1:15 PM33.8 °F21.2 °F60 %29.65 in9.0 miSW (230°)5.8 mphOvercast
1:35 PM33.8 °F24.8 °F70 %29.65 in10.0 miSW (230°)5.8 mphOvercast
1:55 PM33.8 °F24.8 °F70 %29.64 in10.0 miSW (230°)6.9 mphOvercast
2:15 PM33.8 °F23.0 °F65 %29.64 in10.0 miSW (220°)8.1 mphOvercast
2:35 PM33.8 °F24.8 °F70 %29.64 in9.0 miWSW (240°)8.1 mphOvercast
2:55 PM33.8 °F24.8 °F70 %29.65 in8.0 miSW (220°)8.1 mphOvercast
3:15 PM33.8 °F24.8 °F70 %29.65 in8.0 miSW (220°)8.1 mphOvercast
3:35 PM33.8 °F26.6 °F75 %29.65 in9.0 miSW (230°)9.2 mphOvercast
3:55 PM33.8 °F24.8 °F70 %29.64 in8.0 miSSW (210°)9.2 mphOvercast
4:15 PM33.8 °F24.8 °F70 %29.64 in8.0 miSW (220°)9.2 mphOvercast
4:35 PM33.8 °F26.6 °F75 %29.64 in7.0 miSW (220°)6.9 mphOvercast
4:55 PM33.8 °F26.6 °F75 %29.64 in7.0 miSW (220°)5.8 mphOvercast
5:35 PM32.0 °F26.6 °F80 %29.64 in7.0 miWSW (240°)5.8 mphOvercast
5:55 PM32.0 °F24.8 °F75 %29.64 in10.0 miWSW (250°)5.8 mphMostly Cloudy
6:15 PM32.0 °F26.6 °F80 %29.64 in10.0 miWSW (250°)5.8 mphScattered Clouds
6:35 PM32.0 °F24.8 °F75 %29.64 in10.0 miWSW (240°)6.9 mphPartly Cloudy
6:55 PM32.0 °F24.8 °F75 %29.65 in10.0 miWSW (240°)5.8 mphClear
7:15 PM32.0 °F24.8 °F75 %29.65 in10.0 miWSW (250°)4.6 mphMostly Cloudy
7:35 PM32.0 °F24.8 °F75 %29.65 in10.0 miWSW (240°)4.6 mphOvercast
7:55 PM30.2 °F24.8 °F80 %29.65 in10.0 miWSW (240°)4.6 mphOvercast
8:15 PM30.2 °F24.8 °F80 %29.65 in9.0 miWSW (250°)4.6 mphOvercast
8:35 PM32.0 °F26.6 °F80 %29.64 in9.0 miWSW (250°)4.6 mphOvercast
8:55 PM32.0 °F24.8 °F75 %29.65 in9.0 miWSW (250°)5.8 mphOvercast
9:15 PM32.0 °F24.8 °F75 %29.64 in9.0 miWSW (240°)4.6 mphOvercast
9:35 PM32.0 °F26.6 °F80 %29.64 in10.0 miWSW (250°)4.6 mphOvercast
9:55 PM32.0 °F24.8 °F75 %29.64 in10.0 miWest (260°)4.6 mphOvercast
10:15 PM32.0 °F26.6 °F80 %29.65 in7.0 miWest (280°)4.6 mphOvercast
10:35 PM32.0 °F28.4 °F87 %29.65 in5.0 miWest (270°)5.8 mphOvercast
10:55 PM32.0 °F30.2 °F93 %29.65 in5.0 miWest (260°)5.8 mphMostly Cloudy
11:15 PM32.0 °F28.4 °F87 %29.65 in3.0 miWest (270°)4.6 mphOvercast
11:35 PM32.0 °F30.2 °F93 %29.65 in2.5 miWest (260°)5.8 mphOvercast
11:55 PM32.0 °F30.2 °F93 %29.64 in3.0 miWSW (240°)3.5 mphOvercast
Hourly data recorded from KMNM, located miles away from Crivitz, Wisconsin







STORIES FROM OUR PARTNERS